User: anonymous   Login
Location: Unspecified
(0.0000°N, 0.0000°E)
Time: 05:22:08
(UTC+00:00)
Language:

STARLINK-2094 - Orbit

View from above orbital plane
View from above orbital plane
View from above satellite
View from above satellite

Ground track
Ground track

The orbit is defined by the following mean orbital elements,

1 47375U          26145.50849422 +.00000000 +00000-0 +63513-4 0 00003
2 47375  53.1612  65.2344 0001171  85.1993 274.9142 15.31709798    04
Epoch (UTC): 25 May 2026 12:12:13
Eccentricity: 0.0001171
inclination: 53.1612°
perigee height: 470 km
apogee height: 472 km
right ascension of ascending node: 65.2344°
argument of perigee: 85.1993°
revolutions per day: 15.31709798
mean anomaly at epoch: 274.9142°

The dashed part of the orbit path shows where the satellite is in the earth's shadow,  

DLR